Location: Olsztyn
(53.7767°N, 20.4765°E)
Time: 11:55:46
(UTC+02:00)

A-11 Canister half - Visible Passes

Search period start: 16 July 2024 00:00
Search period end: 26 July 2024 00:00
Orbit: 1524 x 1684 km, 47.3° (Epoch: 15 July)

Date Brightness Start Highest point End Pass type
(mag) Time Alt. Az. Time Alt. Az. Time Alt. Az.
20 Jul 11.0 03:39:40 10° SE 03:42:47 12° SE 03:45:53 10° ESE visible
21 Jul 11.0 03:18:51 10° SE 03:21:09 11° ESE 03:23:26 10° ESE visible
22 Jul 11.1 02:58:44 10° SE 02:59:30 10° ESE 03:00:16 10° ESE visible
25 Jul 10.3 03:48:45 10° SSW 03:56:55 29° SE 04:04:54 10° E visible
